This is the latest recevied weather packets stored in our database for station/object 4S6DRJ-13. If no packets are shown the sender has not sent any weather packets the latest 10 day(s).
| Time | Temp. | Humidity | Pressure | Rain* | Wind** | Luminosity | Snow |
|---|---|---|---|---|---|---|---|
| 1787627100 | 27.22° C | 92% | 1011.7 hPa | 0 mm | 0.45 m/s, 196° | 502 W/m² | - |
| 1787627038 | 27.22° C | 93% | 1011.7 hPa | 0 mm | 0.45 m/s, 177° | 654 W/m² | - |
| 1787626977 | 27.22° C | 93% | 1011.7 hPa | 0 mm | 0.45 m/s, 249° | 647 W/m² | - |
| 1787626916 | 26.67° C | 93% | 1011.9 hPa | 0 mm | 0 m/s | 300 W/m² | - |
| 1787626855 | 26.67° C | 93% | 1011.7 hPa | 0 mm | 0 m/s | 374 W/m² | - |
| 1787626794 | 26.67° C | 94% | 1011.9 hPa | 0 mm | 0 m/s | 634 W/m² | - |
| 1787626733 | 26.67° C | 93% | 1011.7 hPa | 0 mm | 0 m/s | 276 W/m² | - |
| 1787626672 | 26.67° C | 94% | 1011.6 hPa | 0 mm | 0 m/s | 578 W/m² | - |
| 1787626611 | 26.11° C | 93% | 1011.8 hPa | 0 mm | 0.45 m/s, 224° | 567 W/m² | - |
| 1787626550 | 26.11° C | 93% | 1011.8 hPa | 0 mm | 0.89 m/s, 219° | 553 W/m² | - |
| 1787626489 | 26.11° C | 93% | 1011.7 hPa | 0 mm | 0 m/s | 523 W/m² | - |
| 1787626428 | 26.11° C | 93% | 1011.8 hPa | 0 mm | 0.45 m/s, 224° | 501 W/m² | - |
| 1787626367 | 26.11° C | 93% | 1011.8 hPa | 0 mm | 0.45 m/s, 250° | 502 W/m² | - |
| 1787626306 | 26.11° C | 93% | 1011.8 hPa | 0 mm | 0 m/s | 494 W/m² | - |
| 1787626245 | 26.11° C | 94% | 1011.7 hPa | 0 mm | 0 m/s | 475 W/m² | - |
| 1787626184 | 26.11° C | 94% | 1011.7 hPa | 0 mm | 0 m/s | 462 W/m² | - |
| 1787626123 | 26.11° C | 94% | 1011.7 hPa | 0 mm | 0 m/s | 381 W/m² | - |
| 1787626063 | 26.11° C | 94% | 1011.9 hPa | 0 mm | 0 m/s | 257 W/m² | - |
| 1787626001 | 26.11° C | 94% | 1011.7 hPa | 0 mm | 0 m/s | 235 W/m² | - |
| 1787625940 | 26.11° C | 94% | 1011.7 hPa | 0 mm | 0.45 m/s, 217° | 211 W/m² | - |
| 1787625879 | 26.11° C | 94% | 1011.7 hPa | 0.25 mm | 0.45 m/s, 181° | 317 W/m² | - |
| 1787625818 | 26.11° C | 94% | 1011.7 hPa | 0.25 mm | 0.45 m/s, 217° | 293 W/m² | - |
| 1787625757 | 26.11° C | 94% | 1011.8 hPa | 0.25 mm | 0.45 m/s, 238° | 243 W/m² | - |
| 1787625696 | 26.11° C | 94% | 1011.6 hPa | 0.25 mm | 0 m/s | 219 W/m² | - |
| 1787625635 | 26.11° C | 94% | 1011.6 hPa | 0.25 mm | 0 m/s | 218 W/m² | - |
* Rain latest hour (hover to see other rain measurements)
** Current wind speed in m/s (hover to see current wind gust speed)